Satellite-Ground Cal/Val Site Overpasses Predictions

Prediction of Satellite NPP Overpassing Cal/Val Site: Antarctic Dome C

Ground Cal/Val Site Location: Latitude: -75.10, Longitude: 123.35; Satellite-Ground Site NADIR distance within 100 km.

Table of predicted overpasses for the next 14.0 days since TLE Epoch: 12/28/2012
Interval Starting Time Ending Time Minimum Distance Time Minimum Distance (km)
1 12/28/2012 14:46:32 12/28/2012 14:47:01 12/28/2012 14:46:46 15.72
2 12/30/2012 07:29:20 12/30/2012 07:29:50 12/30/2012 07:29:35 2.41
3 01/02/2013 14:52:45 01/02/2013 14:53:14 01/02/2013 14:53:00 20.48
4 01/03/2013 14:34:03 01/03/2013 14:34:18 01/03/2013 14:34:11 86.58
5 01/04/2013 07:35:35 01/04/2013 07:36:03 01/04/2013 07:35:49 33.29
6 01/05/2013 07:16:49 01/05/2013 07:17:07 01/05/2013 07:16:58 76.93
7 01/07/2013 14:59:02 01/07/2013 14:59:26 01/07/2013 14:59:14 57.09
8 01/08/2013 14:40:11 01/08/2013 14:40:36 01/08/2013 14:40:24 52.03
9 01/09/2013 07:41:51 01/09/2013 07:42:12 01/09/2013 07:42:02 68.23


NCC Satellite Cal/Val Overpasses Prediction Service
